Regional Weather Roundup
Issued by NWS Tiyan, Guam

Home | Current Version | Previous Version | Text Only | Print | Product List | Glossary On
Versions: 1 2 3 4 5 6 7 8 9 10 11 12 13 14 15 16 17 18 19 20 21 22 23 24 25 26 27 28 29 30 31 32 33 34 35 36 37 38 39 40 41 42 43 44 45 46 47 48 49 50
000
ASGM40 PGUM 280610
RWRGUM
WEATHER ROUNDUP FOR THE MARIANAS
NATIONAL WEATHER SERVICE TIYAN GU
400 PM CHST FRI AUG 28 2015

GUZ001>004-280700-
MARIANA ISLANDS-

CITY           SKY/WX    TMP DP  RH WIND       PRES   REMARKS
GUAM AIRPORT   MOSUNNY   86  75  70 W10       29.76S HX  95
ANDERSEN AFB   PTSUNNY   86  73  66 N12       29.76F HX  93
ROTA AIRPORT   MOSUNNY   84  75  74 NW10      29.75F HX  92
TINIAN AP      PTSUNNY   84  77  79 W8        29.73S HX  94
SAIPAN AP      CLOUDY    84  77  79 NW5       29.74S HX  94

$$



USA.gov is the U.S. government's official web portal to all federal, state and local government web resources and services.